Simultaneous Nadir Overpasses (SNOs) Predictions

Prediction of SNOs between LANDSAT-8 and METOP-B Satellite Orbit:

Table of predicted SNOs for the next 14.0 days since TLE Epoch: 6/24/2023
Index Date (LANDSAT-8) Time (LANDSAT-8) Lat,Lon (LANDSAT-8) SZA (LANDSAT-8 ) Date (METOP-B) Time (METOP-B) Lat,Lon (METOP-B) SZA (METOP-B ) Distance(km) Time Diff (sec)
1 06/24/2023 11:00:59 -81.20,-124.00 119.98 06/24/2023 11:00:24 -81.21,-123.84 119.98 2.60 35
2 06/24/2023 11:50:25 81.21, 43.79 60.04 06/24/2023 11:51:04 81.21, 43.70 60.05 1.38 39
3 06/27/2023 06:35:16 -81.21, -57.45 119.90 06/27/2023 06:34:44 -81.20, -57.56 119.93 2.01 32
4 06/27/2023 07:24:42 81.22, 110.30 60.12 06/27/2023 07:25:23 81.22, 110.34 60.15 0.83 41
5 06/30/2023 02:09:34 -81.20, 8.84 119.80 06/30/2023 02:09:04 -81.21, 9.02 119.79 3.05 30
6 06/30/2023 02:58:59 81.23, 176.94 60.27 06/30/2023 02:59:43 81.22, 176.90 60.29 0.88 44
7 07/02/2023 21:43:51 -81.20, 75.27 119.63 07/02/2023 21:43:25 -81.20, 75.13 119.65 2.27 26
8 07/02/2023 22:33:16 81.23,-116.67 60.44 07/02/2023 22:34:03 81.22,-116.63 60.47 0.72 47
9 07/05/2023 17:18:06 -81.21, 141.81 119.38 07/05/2023 17:17:43 -81.21, 141.92 119.38 1.90 23



Historial Predications of SNOs between LANDSAT-8 and METOP-B
